Main page
METAR-TAF:

METAR-TAF

Airports :

Jask, Iran

latitude: 26-38N, longitude: 057-46E, elevation: 3 m

Current weather observation

The report was made 32 minutes ago, at 04:00 UTC
Wind 6 kt from the North/Northeast
Temperature 17°C
Humidity 34%
Pressure 1019 hPa
Visibility: 7000 m

METAR: OIZJ 210400Z 02006KT 7000 NSC 17/01 Q1019

Time: 08:02 (04:32 UTC)


TAF: missing

Weather observations and forecasts of more than 4000 airports (METAR and TAF reports).

The available stations are represented by yellow and red dots on the map.

Hover mouse over dot to see the name of the station.

Then click to see weather observations and forecasts.

To change the map : click on the green buttons with a black cross to zoom in, on the green button with a dash to zoom out, or on the green arrows for adjacent maps.


METAR-TAF: